Regional Weather Roundup
Issued by NWS

Home | Current Version | Previous Version | Graphics & Text | Print | Product List | Glossary On
Versions: 1 2 3 4 5 6 7 8 9 10 11 12 13 14 15 16 17 18 19 20 21 22 23 24 25 26 27 28 29 30 31 32 33 34 35 36 37 38 39 40 41 42 43 44 45 46 47 48 49 50
000
ASUS43 KBIS 230610
RWRND

NORTH DAKOTA REGIONAL WEATHER ROUNDUP
NATIONAL WEATHER SERVICE BISMARCK ND
100 AM CDT TUE AUG 23 2016

NOTE: "FAIR" INDICATES FEW OR NO CLOUDS BELOW 12,000 FEET WITH NO
SIGNIFICANT WEATHER AND/OR OBSTRUCTIONS TO VISIBILITY.


NDZ001>003-009>011-017-230700-
NORTHWEST NORTH DAKOTA

CITY           SKY/WX    TMP DP  RH WIND       PRES   REMARKS
WILLISTON      CLOUDY    67  38  34 NE5       29.63S
6HR MIN TEMP:  67; 6HR MAX TEMP:  97;

MINOT          CLEAR     68  66  93 N6        29.60S
MINOT AFB      CLEAR     68  66  93 SE7       29.59F
$$

NDZ018>021-031>035-040>046-230700-
SOUTHWEST NORTH DAKOTA

CITY           SKY/WX    TMP DP  RH WIND       PRES   REMARKS
BISMARCK       CLEAR     69  64  84 SE3       29.58R
6HR MIN TEMP:  67; 6HR MAX TEMP:  88;

DICKINSON      CLEAR     62  52  69 W7        29.61F
GARRISON         N/A     70  68  93 NE5       29.59F
6HR MIN TEMP:  70; 6HR MAX TEMP:  89;

HETTINGER ARPT CLEAR     56  51  84 CALM      29.65F
$$

NDZ004>008-012>016-024-026-027-054-230700-
NORTHEAST NORTH DAKOTA

CITY           SKY/WX    TMP DP  RH WIND       PRES   REMARKS
GRAND FORKS    PTCLDY    74  68  81 SE13      29.66S
GRND FRKS AFB  CLOUDY    71  68  89 SE8       29.66S
DEVILS LAKE    CLOUDY    74  69  85 SE15      29.62F
$$

NDZ022-023-025-028>030-036>039-047>053-230700-
SOUTHEAST NORTH DAKOTA

CITY           SKY/WX    TMP DP  RH WIND       PRES   REMARKS
FARGO          CLEAR     75  65  70 SE18G28   29.68F
6HR MIN TEMP:  75; 6HR MAX TEMP:  83;

JAMESTOWN      CLEAR     72  66  81 S14       29.61F
$$





USA.gov is the U.S. government's official web portal to all federal, state and local government web resources and services.